Location: Ahausen
(50.4985°N, 8.2722°E)
Time: 06:29:56
(UTC+00:00)

MetOp-B - Pass Details

Date: 18 September 2020
Orbit: 819 x 821 km, 98.7° (Epoch: 19 October)

Event Time Altitude Azimuth Distance (km) Brightness Sun altitude
Exits shadow 19:41:02 40° 116° (ESE) 1,191 4.5 -20.2°
Maximum altitude 19:42:33 53° 68° (ENE) 1,006 4.3 -20.4°
Drops below altitude 10° 19:47:45 10° 353° (N) 2,428 7.1 -21.2°
Sets 19:50:09 0° 349° (NNW) 3,365 8.0 -21.5°
